SCP
0 0 0 0 0 0 0 0 0 0 0 0 0 0 0 0 0 0 0 0 0 0 0 0 0 0 0 0 0 0 0 0 0 0 0 0 0 0 0 0 0 0 0 0
0 0 0 0 0 0 0 0 0 0 0 0 0 0 0 0 0 0 0 0 0 0 0 0 0 0 0 0 0 0 0 0 0 0 0 0 0 0 0 0 0 0 0 0
0 0 0 0 0 0 0 0 0 0 0 0 0 0 0 0 0 0 0 0 0 0 0 0 0 0 0 0 0 0 0 0 0 0 0 0 0 0 0 0 0 0 0 0
0 0 0 0 0 0 0 0 0 0 0 0 0 0 0 0 0 0 0 0 0 0 0 0 0 0 0 0 0 0 0 0 0 0 0 0 0 0 0 0 0 0 0 0
0 0 0 0 0 0 0 0 0 0 0 0 0 0 0 0 -0 0 0 0 0 0 0 0 0 0 0 0 0 0 0 0 0 0 0 0 0 0 0 0 0 0 0 0
0 0 0 0 0 0 0 0 0 0 0 0 0 0 0 0 0 0 0 0 0 0 0 0 0 0 0 0 0 0 0 0 0 0 0 0 0 0 0 0 0 0 0 0
0 0 0 0 0 0 0 0 0 0 0 0 0 0 0 0 0 0 0 0 0 0 0 0 0 0 0 0 0 0 0 0 0 0 0 0 0 0 0 0 0 0 0 0
0 0 0 0 0 0 0 0 0 0 0 0 0 0 0 0 0 0 0 0 0 0 0 0 0 0 0 0 0 0 0 0 0 0 0 0 0 0 0 0 0 0 0 0
0 0 0 0 0 0 0 0 0 0 0 0 0 0 0 0 0 0 0 0 0 0 0 0 0 0 0 0 0 0 0 0 0 0 0 0 0 0 0 0 0 0 0 0
0 0 0 0 0 0 0 0 0 0 0 0 0 0 0 0 0 0 0 0 0 0 0 0 0 0 0 0 0 0 0 0 0 0 0 0 0 0 0 0 0 0 0 0
0 0 0 0 0 0 0 0 0 0 0 0 0 0 0 0 0 0 0 0 0 0 0 0 0 0 0 0 0 0 0 0 0 0 0 0 0 0 0 0 0 0 0 0
0 0 0 0 0 0 0 0 0 0 0 0 0 0 0 0 0 0 0 0 0 0 0 0 0 0 0 0 0 0 0 0 0 0 0 0 0 0 0 0 0 0 0 0
0 0 0 0 0 0 0 0 0 0 0 0 0 0 0 0 0 0 0 0 0 0 0 0 0 0 0 0 0 0 0 0 0 0 0 0 0 0 0 0 0 0 0 0
0 0 0 0 0 0 0 0 0 0 0 0 0 0 0 0 0 0 0 0 0 0 0 0 0 0 0 0 0 0 0 0 0 0 0 0 0 0 0 0 0 0 0 0
0 0 0 0 0 0 0 0 0 0 0 0 0 0 0 0 0 0 0 0 0 0 0 0 0 0 0 0 0 0 0 0 0 0 0 0 0 0 0 0 0 0 0 0
0 0 0 0 0 0 0 0 0 0 0 0 0 0 0 0 0 0 0 0 0 0 0 0 0 0 0 0 0 0 0 0 0 0 0 0 0 0 0 0 0 0 0 0
0 0 0 0 0 0 0 0 0 0 0 0 0 0 0 0 0 0 0 0 0 0 0 0 0 0 0 0 0 0 0 0 0 0 0 0 0 0 0 0 0 0 0 0
0 0 0 0 -0 0 0 0 0 0 0 0 0 0 0 0 0 0 0 0 0 0 0 0 0 0 0 0 0 0 0 0 0 0 0 0 0 0 0 0 0 0 0 0
0 0 0 -0 -0 0 0 0 0 0 0 0 0 0 0 0 0 0 0 0 0 0 0 0 0 0 0 0 0 0 0 0 0 0 0 0 0 0 0 0 0 0 0 0
0 0 0 0 0 0 0 0 0 0 0 0 0 0 0 0 0 0 0 0 0 0 0 0 0 0 0 0 0 0 0 0 0 0 0 0 0 0 0 0 0 0 0 0
0 0 0 0 0 0 0 0 0 0 0 0 0 0 0 0 0 0 0 0 0 0 0 0 0 0 0 0 0 0 0 0 0 0 0 0 0 0 0 0 0 0 0 0
0 0 0 0 0 0 0 0 0 0 0 0 0 0 0 0 0 0 0 0 0 0 0 0 0 0 0 0 0 0 0 0 0 0 0 0 0 0 0 0 0 0 0 0
0 0 0 0 0 0 0 0 0 -0 -0 -0 0 0 0 0 0 0 0 0 0 0 0 0 0 0 0 0 0 0 0 0 0 0 0 0 0 0 0 0 0 0 0 0
0 0 0 0 0 0 0 0 0 0 -0 -0 -0 0 0 0 0 0 0 0 0 0 0 0 0 0 0 0 0 0 0 0 0 0 0 0 0 0 0 0 0 0 0 0
0 0 0 0 0 0 0 0 0 0 0 0 0 0 0 0 0 0 0 0 0 0 0 0 0 0 0 0 0 0 0 0 0 0 0 0 0 0 0 0 0 0 0 0
0 0 0 0 0 0 -0 -0 0 0 0 0 0 0 0 0 0 0 0 0 0 0 0 0 0 0 0 0 0 0 0 0 0 0 0 0 0 0 0 0 0 0 0 0
0 0 0 0 0 0 0 0 -0 -0 -0 0 0 0 0 0 0 0 0 0 0 0 0 0 0 0 0 0 0 0 0 0 0 0 0 0 0 0 0 0 0 0 0 0
Wind_Speed
5 4 3 5 6 7 8 9 9 8 9 11 7 6 5 4 3 3 3 3 3 3 3 3 3 3 3 2 2 2 2 2 3 2 2 2 2 2 2 2 3 3 2 2
4 4 4 6 8 9 9 8 9 9 12 8 6 4 4 4 4 4 4 4 3 3 3 4 4 4 3 3 3 2 3 3 2 2 2 2 2 2 2 2 2 2 3 3
4 2 2 9 10 10 8 7 8 12 12 4 5 6 5 4 4 5 5 4 4 4 4 4 4 4 4 4 3 3 3 3 2 2 2 2 2 2 2 3 2 3 3 4
1 1 7 9 3 7 7 7 8 7 6 5 7 5 4 4 4 4 4 4 4 4 3 3 3 4 3 3 3 3 3 3 3 2 2 2 2 3 3 3 3 3 4 4
3 4 8 7 3 5 6 7 7 9 8 6 3 1 3 4 4 5 5 4 4 4 3 3 3 3 3 3 3 3 3 4 4 3 3 3 3 4 3 3 3 3 4 4
4 4 7 7 3 2 3 6 4 6 7 5 2 2 5 3 2 3 3 3 3 2 2 3 3 3 3 3 3 4 4 4 4 4 4 4 4 4 3 3 4 3 3 3
6 6 9 6 2 4 4 7 3 4 5 5 6 7 4 2 2 3 3 3 3 2 3 3 3 2 3 4 5 5 4 3 3 3 4 4 3 3 3 3 3 3 3 3
5 6 10 3 5 7 7 2 2 3 4 4 5 4 3 2 3 3 2 3 3 2 3 3 3 3 4 5 4 3 3 3 3 3 3 3 3 3 3 3 3 3 3 3
8 8 4 4 6 5 2 3 3 3 3 3 3 4 3 3 3 3 3 3 2 3 3 3 3 3 5 5 3 2 2 3 3 3 3 3 3 3 3 3 3 3 3 3
4 7 5 5 4 3 4 4 4 3 3 3 4 4 3 3 3 3 3 3 3 2 3 4 3 4 4 3 2 3 3 3 3 3 3 3 3 3 3 3 4 3 3 3
5 6 4 4 5 5 4 3 2 2 2 3 3 4 4 3 3 3 3 3 2 3 4 5 4 4 3 3 2 3 3 3 3 3 3 3 3 3 4 4 4 4 3 3
8 6 5 5 3 3 3 4 4 3 3 2 3 4 4 4 3 3 3 3 3 3 4 4 3 4 3 3 3 3 3 3 2 2 2 3 2 2 4 3 4 5 5 4
6 4 4 4 3 3 3 3 3 3 4 3 3 3 3 3 3 3 3 3 4 4 4 4 3 4 3 3 3 4 4 3 2 2 3 2 2 2 2 2 3 4 5 5
4 2 3 4 4 3 3 3 2 3 3 3 3 2 2 2 3 3 4 4 4 4 4 4 4 4 4 3 3 4 3 3 3 3 3 3 3 2 2 2 1 2 3 4
4 4 5 3 3 3 2 2 2 2 2 2 2 2 2 3 4 4 4 4 3 3 4 3 4 4 3 3 3 3 3 2 2 2 2 2 2 2 2 2 2 1 1 2
3 3 3 3 4 3 2 2 2 3 3 3 3 3 3 4 4 4 4 3 3 4 4 4 5 4 3 3 2 2 2 3 3 2 2 2 2 2 2 2 2 2 2 1
3 4 3 4 4 4 3 4 4 4 3 4 4 4 3 3 3 4 4 3 4 4 4 5 5 4 3 3 3 2 2 2 3 2 2 2 2 2 2 2 2 2 2 2
5 5 4 4 4 4 4 4 3 4 4 4 4 3 3 3 4 5 4 4 4 4 4 4 4 3 3 3 2 2 2 2 2 2 2 2 2 2 2 2 2 2 1 2
3 3 3 4 4 4 4 4 4 4 4 3 3 4 4 4 4 4 3 3 4 5 4 3 4 2 2 3 2 2 2 2 2 1 1 2 2 1 2 2 2 2 2 2
2 2 2 3 3 3 3 3 3 3 3 3 3 3 4 4 3 3 3 4 4 4 4 4 2 2 3 3 3 2 2 2 2 2 2 2 2 2 2 2 2 2 2 2
2 2 2 2 3 3 3 3 3 4 4 3 3 4 4 4 3 3 3 4 4 3 3 3 2 2 2 2 2 2 2 2 2 2 2 2 2 2 2 2 2 2 2 2
2 2 3 2 2 3 3 2 3 3 3 3 3 3 3 4 3 3 4 4 4 4 2 2 2 3 3 2 2 2 2 2 2 2 2 2 2 2 2 2 2 2 2 2
2 2 3 3 3 3 3 3 3 3 3 4 4 4 4 4 3 3 4 3 2 3 2 2 3 3 3 2 2 2 2 2 2 2 2 2 2 2 2 2 2 2 2 2
2 2 2 2 1 1 3 3 3 3 3 4 4 4 3 3 3 3 3 4 4 3 1 2 3 3 2 1 2 2 2 2 2 2 2 2 2 2 2 2 2 2 2 2
2 2 2 2 2 2 3 3 3 3 3 2 3 3 2 2 2 2 2 2 3 2 1 2 2 2 1 1 2 2 2 2 2 2 2 2 2 2 2 2 2 2 2 2
2 2 2 3 2 2 2 2 2 2 2 2 2 2 2 1 2 2 2 2 2 2 1 1 1 1 1 1 1 1 2 2 2 2 2 2 2 2 2 2 2 2 2 2
2 2 2 2 2 2 2 2 2 3 2 2 2 2 2 1 1 1 1 1 1 1 1 1 1 1 1 1 1 1 1 1 1 2 2 2 2 2 2 2 2 2 2 2
Wind_Direction
252 255 223 232 228 210 209 210 217 239 239 252 245 241 243 238 244 253 256 251 230 228 225 223 226 231 233 234 226 212 201 212 224 227 220 219 227 229 225 218 216 208 213 229
269 251 247 264 250 229 231 228 232 252 264 257 250 247 247 240 232 241 244 244 238 231 225 225 226 226 229 235 230 211 207 222 229 224 221 222 229 227 219 219 220 215 222 227
258 288 312 266 235 212 214 213 201 229 245 249 257 246 239 239 229 234 240 240 241 235 232 230 226 221 223 228 223 210 215 226 226 222 225 231 226 216 216 221 224 231 233 230
221 80 238 246 217 196 212 234 219 233 248 238 239 247 249 229 217 234 238 243 244 238 240 236 227 230 232 226 217 213 218 224 227 222 229 234 220 219 221 219 224 233 240 235
177 231 268 280 238 183 194 254 229 227 244 255 256 319 279 242 213 215 225 231 234 235 236 236 231 228 223 230 221 215 224 228 227 221 221 226 227 226 223 219 230 234 238 234
185 215 243 251 238 178 132 270 244 209 229 234 179 245 261 252 222 222 234 237 236 240 234 236 239 220 212 227 222 229 232 231 227 218 216 222 227 230 224 218 229 234 243 237
209 230 259 254 214 126 173 245 232 201 217 212 206 227 246 255 257 238 238 242 232 226 231 239 236 213 221 228 233 238 237 232 229 221 219 221 223 228 218 221 227 231 239 247
188 217 251 217 143 186 219 228 196 211 217 221 232 249 254 253 251 250 256 256 237 229 249 252 229 216 233 239 242 235 227 227 230 229 228 223 211 225 221 210 217 226 231 247
197 218 241 187 197 222 219 221 231 225 231 224 239 251 255 253 253 257 258 261 252 236 255 264 241 221 233 246 239 224 226 230 233 236 230 217 207 214 220 210 214 223 225 236
242 257 252 242 243 246 236 233 241 230 231 228 239 247 255 260 261 264 268 263 259 246 254 267 260 244 238 244 229 220 231 237 228 224 232 219 215 213 215 213 215 221 223 230
247 267 286 267 238 242 250 248 255 260 240 231 230 247 247 258 264 263 267 270 253 244 254 265 266 256 245 231 217 227 234 236 231 225 224 222 224 222 222 220 212 213 218 217
227 223 209 245 254 254 247 250 242 239 254 247 227 240 252 259 262 261 265 264 261 259 261 265 261 259 252 231 217 219 235 234 225 221 221 222 225 251 254 243 238 235 235 234
226 223 221 247 264 254 244 257 254 240 238 253 257 240 242 257 266 265 266 265 258 258 262 263 263 261 256 240 225 222 230 232 224 218 218 219 218 218 242 266 254 245 244 243
232 222 257 255 257 263 255 263 266 268 263 256 256 259 252 265 273 270 267 265 262 263 263 258 259 261 256 241 232 228 226 230 225 218 216 215 218 218 213 214 233 265 255 248
246 226 232 256 273 279 278 272 278 284 289 289 271 260 257 263 270 274 275 275 274 270 263 258 259 263 256 235 231 225 221 219 219 216 209 210 214 213 210 214 220 228 246 251
263 260 246 246 254 263 270 264 258 268 273 274 277 268 261 261 268 276 278 264 263 269 267 261 260 262 253 234 230 224 222 228 218 206 197 203 209 207 205 206 210 211 216 216
233 251 242 248 254 259 254 250 246 255 263 262 264 268 270 274 280 282 281 270 260 260 258 254 259 262 247 229 220 220 218 218 217 211 205 205 207 206 202 199 201 212 229 229
229 237 233 229 236 248 263 263 257 258 260 262 269 268 261 257 262 272 280 284 284 278 264 254 255 252 237 227 216 207 205 206 204 208 207 204 204 197 192 195 200 209 229 232
248 242 242 240 237 238 251 258 260 260 264 263 259 257 256 256 258 266 273 272 273 277 276 270 267 242 239 238 222 201 193 195 205 207 200 209 204 194 199 205 211 213 215 218
282 269 254 255 253 245 252 261 262 266 266 258 259 264 267 269 266 264 263 259 254 257 266 267 251 234 237 234 216 191 188 192 201 205 203 197 194 198 205 213 218 216 217 221
289 285 269 264 272 269 258 255 255 265 271 260 250 254 261 270 265 256 259 271 275 270 260 257 242 241 238 228 206 183 189 195 196 198 196 198 201 203 209 217 225 227 226 228
285 285 276 267 269 285 285 269 256 260 270 268 261 259 260 267 266 261 250 252 265 280 273 239 235 239 237 209 180 185 194 196 194 190 191 196 200 207 216 221 226 231 231 229
274 273 275 267 263 276 293 286 265 259 260 260 260 258 253 252 248 249 268 267 263 269 266 242 247 247 222 174 183 194 193 189 191 194 199 200 204 210 218 224 227 225 225 228
279 284 287 290 282 283 293 297 295 281 269 265 260 256 252 255 262 250 256 283 296 291 265 259 259 250 206 170 188 195 194 195 199 198 195 199 203 209 216 222 228 230 228 230
281 284 288 290 283 276 279 298 311 306 298 288 283 274 258 238 246 274 283 272 278 288 284 274 267 260 207 186 192 200 204 208 204 191 190 193 200 208 215 215 221 225 228 231
278 277 273 267 265 272 278 284 289 292 297 299 299 291 283 272 264 272 277 276 274 283 287 261 254 250 207 197 200 205 209 216 220 206 196 199 203 205 211 217 221 224 228 231
291 289 295 303 298 279 272 270 272 278 277 276 287 290 290 287 285 286 288 290 296 292 272 252 231 218 205 200 204 207 210 208 203 200 200 202 203 209 214 218 223 224 224 225